GFSWCAN_850_thetae_159.txt.gz
Theta_e
309 308 307 309 312 316 318 318 319 319 319 319 319 319 319 318 315 313 313 317 318 319 320 317 319 319 319 320 321 322 325 324 316 318 317 318 319 320 323 322 321 320 322 323 323 328 330 329 331 332 329 331 332 333
310 308 307 308 314 316 318 319 318 319 319 319 318 318 317 316 313 313 314 315 313 314 316 317 316 315 315 316 320 321 322 322 324 318 316 317 321 316 319 326 320 321 319 322 322 324 323 327 329 329 330 329 332 331
309 307 308 313 316 316 317 317 318 318 318 316 317 315 315 313 313 314 314 314 314 314 314 315 316 316 316 315 314 317 319 324 323 324 320 317 320 316 319 321 324 323 320 320 322 323 323 324 325 330 329 329 330 330
308 308 311 313 315 316 316 316 316 315 315 315 315 315 314 313 312 312 312 312 312 313 316 316 315 314 315 317 319 317 316 321 318 319 322 318 318 316 316 319 321 322 319 320 321 325 326 327 328 330 330 332 329 331
306 309 312 314 314 315 315 315 314 313 313 313 313 312 312 311 311 311 311 311 312 312 315 316 315 317 315 313 313 316 318 315 316 320 319 318 319 317 314 314 318 321 317 321 325 327 328 329 331 330 330 330 327 332
305 310 311 313 314 314 314 314 314 314 314 314 313 312 313 312 312 311 312 316 316 316 316 316 316 314 315 318 317 319 321 320 320 321 322 325 324 320 317 319 320 323 323 323 326 329 329 328 331 330 330 332 328 329
305 310 312 312 313 312 312 312 311 312 312 312 312 312 312 312 311 310 311 316 317 315 316 318 318 320 323 323 320 319 320 322 321 321 322 325 323 323 317 320 322 325 326 326 326 330 327 328 329 328 327 328 332 333
303 309 310 311 311 312 311 311 312 310 310 310 311 311 311 310 310 312 313 312 314 314 315 318 319 320 323 323 321 321 321 321 321 323 323 324 324 320 320 321 323 325 327 326 327 327 326 327 327 327 326 326 331 334
304 305 308 310 310 311 310 310 310 309 310 311 310 310 310 312 313 316 315 316 315 312 316 319 322 324 321 324 322 323 322 318 321 318 320 324 321 321 320 324 323 324 326 327 327 326 326 326 326 325 325 327 328 334
305 305 307 307 309 308 309 308 308 308 310 309 309 312 314 316 316 315 315 315 313 314 314 316 317 319 318 320 323 322 323 320 322 321 322 321 322 324 325 325 324 324 323 324 324 325 325 324 324 324 325 325 326 327
303 304 305 305 304 306 307 307 308 309 308 309 312 313 315 316 315 314 317 316 314 316 315 316 317 319 315 322 323 325 320 320 323 322 323 321 321 322 325 325 325 325 324 324 324 324 323 324 324 324 325 325 327 328
303 304 304 304 303 304 306 307 308 308 310 312 313 314 315 315 313 315 319 318 317 317 319 318 318 319 317 325 326 326 325 322 325 324 323 324 320 325 327 326 326 325 325 326 326 325 324 323 324 325 325 326 327 327
303 303 303 303 304 305 305 306 308 308 310 312 314 314 316 316 314 320 320 320 320 321 320 321 320 318 323 324 325 325 327 327 323 325 326 322 322 324 325 325 325 326 326 326 325 324 324 323 323 325 324 324 324 326
302 303 304 305 305 305 306 306 308 308 311 312 314 312 315 317 315 315 320 320 318 319 320 321 321 321 323 322 323 326 325 325 327 327 326 321 328 331 328 326 326 326 326 325 325 325 325 324 323 324 325 324 325 325
303 304 304 305 305 305 306 307 307 308 310 312 314 312 313 315 316 317 317 319 318 320 319 320 322 323 322 323 323 324 326 328 326 325 320 325 331 331 330 328 326 326 326 326 325 325 326 326 324 324 324 325 325 325
304 304 306 306 306 306 306 307 308 309 311 312 314 315 316 316 316 317 317 317 321 321 321 321 322 324 324 323 325 326 326 326 323 323 329 327 325 325 326 326 329 329 328 327 326 325 325 324 324 324 323 324 325 325
305 307 308 307 307 307 307 308 309 310 311 314 315 315 316 316 316 317 317 318 318 318 321 319 322 324 322 323 324 322 324 324 325 328 327 327 327 327 326 327 324 323 326 327 327 327 326 325 324 324 323 325 325 325
307 307 308 307 307 307 308 310 310 312 313 313 314 314 315 316 317 317 316 317 317 319 320 321 320 321 323 325 323 321 323 323 325 324 322 322 322 322 323 322 321 321 322 322 324 327 327 326 325 325 324 326 326 325
308 307 308 308 307 309 308 309 310 312 314 315 315 315 316 316 316 316 316 316 317 319 320 318 318 319 319 319 321 322 323 324 324 324 323 321 321 322 322 322 324 324 326 326 324 328 327 326 326 325 325 326 326 325
308 308 308 308 309 310 312 313 312 314 314 315 316 317 317 317 317 316 316 316 316 317 319 317 316 318 321 322 323 322 323 323 323 323 322 323 322 321 321 323 325 324 325 326 328 328 328 328 327 327 326 326 325 324
307 308 308 308 308 309 309 312 314 315 316 316 316 317 316 316 316 316 315 315 316 316 316 319 320 319 319 319 321 320 319 319 321 322 321 322 322 320 322 323 322 323 322 321 322 325 327 326 327 327 328 326 325 325
308 307 308 308 309 311 311 311 312 314 314 314 315 315 315 314 315 316 316 315 316 316 316 316 316 318 318 317 318 318 317 319 320 321 321 320 322 321 320 320 323 324 322 321 320 321 324 326 327 328 329 327 327 326
309 308 309 310 310 312 312 312 313 313 311 314 317 316 316 317 317 319 317 317 318 319 321 321 318 317 317 317 318 317 320 320 320 320 319 320 321 321 321 322 323 324 323 321 319 318 320 324 325 327 328 327 327 328
309 309 311 312 312 309 311 312 314 315 316 316 317 319 319 317 318 321 321 321 322 321 322 321 320 319 318 318 317 318 319 319 319 319 320 321 322 322 322 322 323 323 322 320 319 320 320 322 323 325 326 327 327 327
309 308 310 308 311 312 313 312 312 315 317 318 319 319 318 319 320 322 322 321 321 322 323 323 321 321 320 320 321 321 321 321 319 321 321 321 322 322 321 321 323 322 320 320 320 320 320 320 321 323 324 325 325 324
306 308 309 312 311 311 311 316 317 318 319 321 320 320 320 320 323 322 319 320 321 322 322 322 322 322 322 322 321 322 322 323 322 321 320 321 322 323 323 322 321 320 320 320 320 321 323 323 323 324 324 323 323 323
306 306 310 311 312 313 314 315 316 316 318 322 317 320 321 322 322 319 320 322 322 321 321 322 322 323 323 322 322 322 322 322 322 322 322 322 322 323 323 321 320 321 321 322 322 323 322 322 322 321 321 321 321 321
308 309 308 311 312 314 315 316 318 319 320 319 319 321 321 320 321 320 322 321 321 320 320 320 320 321 322 321 322 321 321 321 321 321 321 321 322 322 321 320 320 320 320 320 319 319 318 320 321 320 320 320 320 320
308 310 310 310 312 314 316 317 319 319 319 320 318 319 320 320 321 321 321 321 321 320 320 321 321 322 321 321 320 319 320 321 321 321 321 320 320 320 319 317 317 318 318 319 318 319 319 318 316 316 315 316 318 318
310 311 311 314 316 318 319 319 319 319 318 319 320 320 320 321 321 321 321 321 320 320 320 321 321 322 321 321 321 319 319 318 318 320 319 319 319 319 318 318 316 318 319 320 318 317 317 316 316 316 316 315 315 316
311 314 314 315 317 317 318 318 319 320 320 319 318 319 320 320 320 320 320 319 319 319 319 319 319 319 319 319 321 320 318 315 314 315 317 317 318 318 318 317 318 315 314 314 315 316 316 316 316 316 316 316 316 316
314 316 316 318 318 318 318 319 320 318 317 318 319 320 320 321 320 319 320 319 319 319 318 318 318 318 317 318 320 321 320 320 317 316 315 315 313 314 314 313 313 313 313 313 313 313 315 316 316 316 314 316 316 316
314 317 317 317 318 319 318 319 319 318 317 320 320 320 321 321 320 319 319 319 319 319 319 317 316 317 316 317 317 318 318 318 318 319 319 317 317 316 315 314 314 314 314 314 315 315 315 315 316 316 316 316 316 315

GFSWCAN_850_thetae_162.txt.gz
Theta_e
310 310 310 310 309 308 312 315 316 317 319 318 318 318 319 318 317 314 313 315 315 317 317 317 318 318 318 318 316 318 322 323 320 317 317 318 317 319 320 319 320 320 321 322 321 324 324 326 330 331 327 329 330 332
309 309 309 308 308 313 315 315 318 318 317 318 318 318 317 316 315 313 313 314 314 312 314 315 315 316 318 318 319 318 321 321 321 318 315 315 319 316 320 324 317 321 317 320 321 322 321 329 328 329 329 329 331 332
308 309 309 308 310 314 316 316 316 316 317 317 316 316 315 314 313 313 313 313 312 312 314 315 316 318 319 317 316 317 316 316 321 317 318 315 319 314 321 320 322 320 318 318 320 320 320 324 326 325 329 330 330 331
308 308 308 309 312 313 315 316 315 315 315 315 315 315 315 314 312 312 311 311 311 311 313 314 316 316 316 315 316 315 316 319 317 316 319 318 317 315 316 318 319 320 319 319 319 322 325 325 326 329 330 329 329 330
306 306 308 310 312 312 314 314 314 313 313 313 313 313 312 311 311 311 311 311 310 310 313 313 315 317 316 318 318 317 318 316 316 315 317 321 316 317 312 314 318 320 317 321 322 325 326 326 328 330 331 327 330 329
306 305 308 310 313 313 313 313 313 313 313 314 313 313 312 312 312 311 311 314 316 314 314 316 315 314 318 317 316 314 315 318 317 318 319 321 322 319 316 316 318 323 322 326 325 328 328 328 329 330 331 331 329 331
305 305 309 311 312 312 312 312 312 311 311 312 312 312 311 312 312 310 310 314 316 315 315 315 316 317 320 321 316 316 316 319 319 321 319 321 322 319 315 318 321 323 323 323 324 327 327 328 329 328 328 331 329 331
305 303 307 310 311 311 311 311 311 311 310 310 310 311 310 310 310 311 313 312 311 314 314 316 317 318 322 321 318 317 318 320 320 321 321 321 321 318 320 319 322 324 324 325 325 327 326 327 328 328 328 328 330 330
304 303 304 308 309 310 310 310 310 310 309 310 310 310 309 311 312 315 315 315 314 312 315 317 320 321 318 318 321 319 320 319 320 318 320 321 319 322 321 321 323 326 325 325 327 328 326 327 327 327 327 326 325 329
305 304 306 305 306 307 308 308 308 308 309 309 309 310 313 315 316 315 315 315 313 313 313 315 315 319 316 316 322 321 320 318 322 321 321 322 320 323 324 324 325 326 326 326 326 327 325 326 326 326 325 325 325 326
305 304 304 304 305 304 306 307 307 308 309 309 311 312 314 315 315 313 315 315 314 315 314 315 316 318 315 320 323 324 322 319 322 321 322 320 320 321 325 325 324 324 326 326 325 325 325 325 325 325 325 325 325 326
304 303 303 304 303 303 305 307 307 308 309 311 311 313 314 315 313 313 317 317 316 317 316 318 318 317 317 321 324 325 325 321 324 321 321 322 320 324 325 326 325 324 323 323 324 323 323 323 323 324 324 324 325 324
303 303 302 303 303 304 305 307 306 307 309 311 313 313 314 315 314 319 319 320 321 320 319 320 320 320 318 323 324 324 326 326 323 325 325 322 321 326 323 323 324 325 324 323 323 323 324 324 323 323 323 324 324 325
302 302 303 303 304 305 305 306 307 307 310 311 312 310 315 316 315 314 318 319 319 318 318 318 320 320 320 321 323 325 323 324 327 327 327 321 329 330 328 326 324 325 325 325 323 324 325 324 324 323 323 323 324 324
303 303 304 304 304 305 305 306 307 307 309 310 313 313 312 313 315 316 317 317 318 319 319 319 320 321 322 323 322 322 325 325 327 326 321 324 326 330 330 327 326 325 326 326 326 325 325 325 325 324 324 323 324 324
303 304 305 305 305 305 305 305 307 308 310 311 311 312 314 314 315 316 317 317 319 320 320 321 321 322 322 322 324 325 325 325 323 322 327 324 326 329 327 327 329 329 328 327 325 325 324 324 324 324 325 324 324 324
304 306 307 307 306 306 306 307 308 309 310 312 312 313 314 314 314 315 317 317 317 317 320 319 321 324 321 322 323 323 324 323 324 327 327 326 325 324 323 322 322 323 325 328 327 326 326 325 324 324 324 323 323 323
307 307 308 307 307 307 307 308 309 311 312 312 312 312 313 314 315 316 316 316 316 318 320 321 318 323 324 324 324 322 323 323 325 324 323 322 321 321 321 322 321 320 321 321 321 323 327 327 326 325 325 325 324 323
306 308 308 307 307 307 308 308 309 310 312 313 314 314 314 315 316 316 316 316 316 318 319 318 317 319 319 319 322 322 322 323 324 323 322 321 323 323 322 323 325 325 325 324 324 324 325 326 326 325 325 325 325 325
308 308 309 307 309 310 311 312 311 312 313 314 314 314 316 317 317 317 316 316 316 316 318 316 315 316 320 322 322 322 323 323 323 322 322 323 321 321 321 321 322 323 323 322 322 325 327 327 327 327 326 326 325 325
308 308 308 308 308 309 309 310 313 314 315 315 315 315 315 315 315 315 315 315 315 315 313 316 317 317 318 320 321 319 318 317 318 321 322 320 322 321 321 321 322 323 323 322 321 320 320 323 326 326 327 327 327 326
308 308 308 308 308 308 310 310 310 312 313 314 314 314 314 313 314 315 315 315 315 316 316 315 315 315 316 318 318 320 319 317 317 319 320 321 320 321 321 320 320 320 323 323 322 321 319 319 322 325 327 328 328 327
308 308 309 309 309 311 311 312 313 313 310 312 315 316 316 316 317 318 317 316 317 318 320 321 321 320 316 316 317 316 316 316 316 319 319 319 319 320 321 321 322 323 323 322 322 321 320 319 319 323 325 327 328 327
309 309 310 311 310 308 311 311 312 313 314 315 317 318 318 318 318 319 321 320 321 321 322 322 321 319 318 318 317 316 317 319 319 318 318 318 319 321 321 322 322 322 323 322 321 320 319 320 320 321 323 325 327 327
309 308 309 307 311 311 313 312 311 313 317 317 318 318 318 318 319 321 321 321 320 322 322 322 322 321 320 319 318 317 317 318 319 319 319 320 321 321 321 322 322 323 322 320 320 320 320 320 320 321 323 324 326 326
308 307 307 311 310 309 310 315 316 317 317 319 320 319 319 319 322 321 319 320 321 322 322 322 322 322 322 322 322 322 322 322 322 322 322 320 321 322 322 322 321 320 320 320 321 322 321 322 322 323 323 325 325 324
307 305 308 310 311 312 313 315 315 316 317 320 315 319 321 321 321 320 321 322 322 321 321 322 323 323 322 322 321 321 321 321 322 322 322 321 321 322 322 321 320 320 320 319 319 321 322 321 321 321 322 322 322 322
307 308 307 309 310 313 313 315 317 319 319 318 319 320 320 320 320 320 321 320 320 320 321 321 321 321 321 321 321 322 321 321 321 321 321 321 322 321 319 319 319 319 319 317 316 317 320 321 320 320 319 318 318 319
308 309 309 308 310 312 314 316 317 319 319 319 318 319 319 320 321 321 321 321 321 321 321 321 321 321 319 319 320 322 321 321 321 321 321 320 320 317 317 318 318 318 317 317 317 318 317 317 315 314 315 316 317 317
308 309 309 311 313 315 317 318 319 318 319 318 320 320 320 320 318 319 321 320 320 320 320 320 321 321 320 317 316 316 318 319 319 318 318 319 318 316 317 318 319 318 317 316 316 315 315 315 315 315 316 315 314 313
309 311 312 314 316 316 317 318 318 319 320 319 318 319 320 320 320 319 319 319 319 319 319 318 318 319 319 320 318 315 314 315 316 317 318 318 318 317 317 316 314 314 315 315 315 315 315 315 315 316 316 316 316 316
312 313 316 317 317 317 318 319 320 318 317 317 319 320 320 320 319 319 319 319 319 318 318 318 318 317 318 320 320 319 317 316 315 314 314 315 316 315 313 313 313 313 313 313 314 315 315 316 315 315 315 315 315 315
313 315 315 316 316 318 318 319 319 318 318 319 319 320 320 320 318 318 318 318 318 318 315 316 316 316 316 319 320 319 319 318 318 317 318 316 315 314 314 313 313 313 314 314 315 315 315 315 315 316 315 315 315 315

GFSWCAN_850_thetae_165.txt.gz
Theta_e
309 310 310 309 309 309 309 311 314 316 316 318 317 317 318 318 318 316 314 314 313 315 316 316 319 319 319 319 321 319 319 325 327 324 325 325 326 325 328 328 329 332 331 331 330 331 327 326 332 335 333 332 332 334
309 309 308 309 308 309 314 315 315 315 318 317 317 317 317 316 315 314 313 313 314 314 315 316 315 315 316 318 318 319 321 319 319 325 323 322 324 325 329 329 323 329 328 330 330 328 328 330 332 331 330 331 333 334
308 307 307 308 308 309 312 315 315 315 316 316 316 316 315 314 314 314 313 313 312 311 313 313 316 315 315 316 316 317 318 317 319 317 319 322 329 324 329 329 329 324 322 328 328 327 325 325 330 327 329 331 331 334
308 308 308 307 309 311 312 314 315 315 315 315 315 314 314 314 313 313 311 310 310 310 312 313 313 314 314 315 316 317 317 317 318 317 317 323 325 319 326 328 329 326 325 329 329 327 327 326 327 327 330 329 331 330
306 306 306 307 310 311 312 313 314 314 313 313 313 313 313 312 312 311 311 311 310 310 312 312 314 316 315 316 316 316 315 316 317 318 318 325 320 320 319 324 328 324 330 329 327 331 332 330 326 329 329 331 329 330
306 306 306 307 310 312 312 312 312 313 313 313 314 313 313 312 312 311 310 313 314 314 311 316 314 314 317 320 316 316 316 317 317 318 318 320 320 320 327 329 326 325 324 325 330 326 327 327 329 330 331 329 329 330
304 305 304 308 310 310 311 311 311 312 312 311 311 313 312 311 311 311 310 312 313 313 313 315 316 315 318 319 316 316 317 318 318 318 322 322 324 320 324 329 328 324 324 324 324 326 328 327 329 330 330 328 330 329
304 305 304 306 309 310 310 310 311 311 311 311 310 310 311 310 310 310 312 312 310 311 314 316 316 318 319 320 317 318 317 318 318 321 321 323 322 322 329 328 322 323 323 322 323 326 327 328 328 329 328 330 330 333
303 304 304 305 307 309 309 310 310 310 310 310 310 310 309 310 311 314 315 315 314 312 314 317 319 317 314 316 319 318 319 321 321 325 324 324 326 334 330 327 323 324 324 323 324 326 326 327 327 328 327 327 331 333
304 304 305 307 305 305 306 307 308 308 308 309 309 309 312 315 316 315 314 314 312 312 312 314 315 318 314 317 318 323 319 323 323 324 321 327 328 324 324 323 323 324 325 325 325 326 325 326 327 328 327 325 324 325
305 304 304 304 305 305 305 306 308 308 309 309 310 312 313 314 315 314 315 315 315 315 315 315 315 317 315 317 320 324 328 323 326 326 328 330 330 329 325 325 324 324 325 325 325 324 325 325 325 326 326 325 325 324
305 304 303 303 303 303 303 305 307 307 308 310 310 312 313 314 314 314 317 317 316 318 316 317 318 317 316 318 325 326 328 325 328 324 326 328 328 326 326 326 326 324 324 325 325 325 325 325 325 325 325 325 325 325
304 303 303 302 302 303 303 306 307 306 308 310 311 312 314 314 315 317 319 320 320 319 319 319 320 320 317 317 322 326 327 328 324 328 329 328 323 325 324 325 325 324 325 323 323 324 324 323 323 323 323 323 323 323
303 302 302 302 303 303 305 306 307 307 309 310 312 311 314 316 316 316 318 319 318 318 318 318 319 321 320 322 322 325 323 325 329 330 329 327 327 328 328 327 325 324 324 324 324 323 323 322 323 323 323 323 322 323
302 303 303 303 304 304 305 305 307 307 309 310 312 314 315 314 314 315 317 318 317 318 320 320 321 321 322 323 324 323 324 325 327 329 325 326 327 328 329 327 325 324 324 325 325 324 323 323 324 325 324 323 323 323
303 303 304 304 304 305 305 305 306 307 310 310 310 313 314 316 317 316 316 317 318 318 319 320 322 323 323 323 322 325 325 324 325 327 327 326 327 325 326 327 329 329 327 326 325 325 325 325 325 324 324 324 325 324
304 305 306 306 306 305 305 306 307 308 309 311 312 312 313 314 314 314 316 317 317 317 322 321 322 322 322 322 323 324 326 328 326 326 326 324 323 323 323 323 324 324 324 326 327 327 326 325 324 324 324 324 323 323
306 306 307 306 306 305 306 308 309 310 311 311 312 313 312 314 315 315 316 316 316 316 319 321 320 323 323 323 323 323 323 323 325 324 324 321 321 321 322 323 323 322 322 321 321 321 322 326 327 326 325 325 325 325
307 308 307 307 307 307 307 308 309 311 312 313 313 313 313 314 314 315 315 316 315 315 317 320 322 322 322 321 321 322 322 323 324 323 321 321 323 322 323 324 324 324 324 323 323 322 323 324 325 326 326 325 325 325
306 308 308 307 308 309 310 311 310 310 312 313 313 313 314 315 316 316 316 316 315 316 319 320 320 319 321 321 321 322 322 322 323 322 322 321 320 321 322 322 322 322 322 321 320 320 321 323 325 326 326 327 327 326
308 308 309 308 308 308 309 309 311 313 314 315 315 314 315 315 315 315 315 315 315 316 316 317 317 316 317 317 319 320 319 318 318 320 322 321 322 321 320 320 320 320 322 322 322 322 321 320 319 320 324 325 326 327
308 308 308 308 308 308 308 309 310 311 311 313 313 313 315 315 315 315 315 315 316 316 315 315 315 315 315 315 315 318 320 319 317 316 318 320 321 320 321 321 320 321 321 323 322 321 321 320 319 318 320 323 325 327
307 308 308 308 309 310 310 310 312 313 314 314 314 317 317 316 316 317 317 317 316 317 319 321 321 321 321 318 315 315 318 317 317 317 316 319 319 318 319 320 321 321 322 322 322 322 321 320 319 319 319 322 325 327
308 309 310 311 309 309 310 311 311 312 314 316 317 317 317 318 317 318 318 317 319 320 322 322 322 320 319 318 317 316 315 316 316 316 316 319 318 318 319 320 322 322 321 321 322 321 320 320 320 320 320 321 324 326
309 308 309 308 310 311 313 313 313 314 314 315 316 318 318 317 319 320 320 321 321 321 322 322 322 321 320 319 318 317 317 317 317 318 319 319 319 319 320 321 322 322 322 321 320 320 320 321 320 320 320 320 323 326
307 307 307 310 311 311 312 314 315 316 317 318 319 318 319 321 322 322 320 320 321 321 321 322 322 322 322 322 322 321 321 321 321 321 321 321 320 320 321 322 321 321 320 320 319 321 322 321 322 322 322 323 324 325
307 307 307 308 309 311 313 314 314 316 317 319 319 320 321 321 321 321 321 321 321 321 321 321 322 321 321 320 320 321 322 322 322 322 321 321 321 321 321 320 320 319 317 317 320 320 320 320 320 320 321 321 322 323
308 307 309 309 310 311 314 314 316 318 319 319 319 320 320 320 321 320 320 320 320 321 321 321 320 320 321 321 321 321 321 321 321 322 321 321 320 319 319 319 319 317 317 316 317 317 320 319 318 318 318 319 319 319
308 308 309 309 310 312 314 315 316 318 319 319 319 319 320 320 320 321 321 321 321 321 321 318 318 319 318 317 318 320 321 321 321 322 320 317 317 317 317 315 315 315 315 315 315 315 315 316 316 315 315 315 314 314
308 307 309 311 314 316 316 317 318 318 319 319 319 319 319 319 319 320 319 319 319 320 320 320 319 318 315 316 317 317 318 318 319 320 320 318 317 317 317 316 316 316 316 316 315 315 315 315 313 312 312 312 312 312
308 309 311 313 315 316 316 317 319 319 319 319 318 318 319 320 319 318 318 318 318 319 318 318 319 319 319 317 315 316 317 318 318 318 317 317 318 317 315 314 314 314 314 315 315 316 316 316 317 317 317 317 315 316
310 311 316 316 317 317 317 318 319 318 317 318 319 319 319 319 320 319 319 318 316 316 317 317 317 319 319 318 317 316 314 314 316 317 317 316 314 313 313 313 313 313 314 315 315 315 315 315 315 315 316 316 316 315
312 314 315 316 316 318 318 319 319 318 318 320 319 319 320 319 319 318 318 318 316 315 315 315 315 317 320 320 319 318 317 317 317 316 315 314 313 313 313 313 314 314 314 314 316 315 315 315 315 315 315 315 315 314

GFSWCAN_850_thetae_168.txt.gz
Theta_e
311 310 309 310 309 309 309 311 315 314 316 316 318 317 317 317 318 317 316 314 317 319 320 320 320 322 322 322 323 323 323 324 328 327 329 331 329 330 330 330 332 331 331 330 330 332 331 329 333 332 336 334 334 334
309 308 309 309 308 308 309 312 315 316 314 317 317 317 317 317 317 315 315 314 314 315 318 318 317 318 319 320 321 322 323 324 324 329 329 329 329 329 330 332 331 331 330 331 331 331 332 331 333 334 333 334 334 336
308 308 308 308 309 308 310 312 314 315 315 315 316 316 316 315 315 314 313 313 313 314 315 316 318 317 317 317 317 320 323 322 321 321 324 327 331 329 330 330 329 330 330 329 333 330 331 331 333 332 334 333 335 336
308 308 308 307 308 308 310 312 313 314 314 315 315 314 314 314 314 313 312 312 313 313 315 315 314 315 316 316 317 317 320 321 321 320 323 326 329 326 330 331 331 331 330 331 332 333 331 330 332 332 334 334 335 337
307 307 307 307 307 310 311 312 313 313 313 313 313 313 313 313 312 311 311 312 311 313 315 314 315 318 317 318 317 318 318 318 319 321 324 327 327 324 325 330 330 330 331 332 328 331 329 330 330 333 334 334 334 335
307 306 306 306 307 310 312 312 312 312 312 313 313 313 313 313 312 311 314 313 314 313 312 317 316 317 319 321 318 318 318 318 319 320 321 320 322 324 328 330 329 329 330 329 329 330 327 329 331 333 333 333 334 336
306 305 305 305 308 310 310 311 311 311 312 312 311 311 313 312 311 312 314 314 312 311 312 316 318 316 319 320 319 318 318 318 319 320 320 321 325 323 328 329 329 329 330 331 331 332 332 331 332 333 333 333 334 334
304 304 305 304 306 309 309 310 310 311 311 311 311 310 311 311 310 311 312 310 310 310 313 318 318 318 316 319 320 318 319 320 320 320 321 324 325 325 330 329 330 330 329 329 331 330 329 332 333 334 333 334 333 333
304 303 305 304 305 308 309 309 310 310 310 310 310 310 309 309 311 314 314 314 314 311 315 317 320 320 314 316 317 319 320 323 320 321 323 327 328 330 331 331 329 330 329 328 330 330 331 332 333 334 332 334 336 334
304 304 304 305 308 306 306 306 307 308 308 309 309 309 314 314 315 314 314 314 312 311 311 314 316 318 315 316 317 322 320 321 324 322 323 327 329 329 326 324 329 331 330 329 329 330 330 331 333 333 331 330 331 335
305 305 304 304 304 305 305 305 306 308 309 308 310 312 313 313 314 314 316 317 315 316 315 316 316 318 316 317 319 319 327 324 324 326 327 329 330 329 330 331 328 329 330 330 329 328 327 328 330 331 331 330 329 330
304 305 304 303 303 303 303 303 306 307 308 310 310 311 312 314 315 316 318 319 318 319 318 318 317 316 318 316 319 322 328 326 327 326 328 331 332 330 331 330 331 328 327 328 329 329 328 328 328 328 330 331 330 331
304 304 303 303 303 302 303 304 306 307 308 309 310 311 313 316 318 318 319 320 320 319 319 319 320 320 317 316 320 325 329 328 327 329 327 330 331 332 334 333 326 328 327 327 327 328 327 328 326 328 329 330 331 333
304 303 302 302 302 303 304 306 307 306 308 310 313 314 316 318 317 317 318 321 320 320 319 318 320 320 319 320 320 324 325 327 330 330 328 332 332 333 334 333 332 331 327 328 328 327 327 328 325 323 326 328 329 331
302 302 303 303 303 304 305 306 307 307 309 310 313 317 316 316 317 318 318 318 320 318 319 322 322 321 321 321 323 323 324 327 329 330 330 332 332 333 334 333 332 330 329 329 329 328 328 327 328 326 324 324 323 328
303 303 303 303 304 304 304 305 306 307 308 309 311 314 316 317 318 318 317 318 318 318 320 321 323 323 323 323 323 325 326 326 328 331 330 330 330 331 332 333 333 334 333 332 330 330 329 329 329 328 325 325 324 323
303 305 305 306 304 304 305 306 306 307 310 311 313 313 314 316 317 316 318 319 317 318 322 322 324 325 323 324 324 324 327 330 329 329 329 327 329 326 329 330 330 330 331 333 333 333 330 326 326 326 330 325 327 325
306 306 306 305 305 305 306 307 308 311 312 312 314 313 314 315 316 316 316 316 317 318 319 322 320 324 324 324 324 324 324 324 323 325 322 322 321 323 328 329 329 329 329 330 330 329 330 332 333 332 331 329 326 325
306 306 307 306 306 307 308 309 309 312 313 314 314 314 315 315 315 316 317 318 318 318 318 320 323 323 324 319 321 321 324 323 324 324 325 321 322 323 328 328 328 328 325 325 326 326 327 327 329 329 329 330 330 329
307 308 307 307 308 309 310 312 310 312 313 314 314 315 316 316 316 317 317 318 318 319 319 320 320 320 321 322 321 322 321 321 323 323 323 322 322 325 322 324 325 326 325 325 324 323 324 324 324 325 326 326 328 328
306 308 308 307 308 308 311 312 311 313 315 316 317 317 316 316 317 316 317 317 317 317 318 317 317 317 319 321 317 318 321 320 321 322 322 324 325 324 324 324 322 323 324 323 324 324 324 324 324 324 323 324 326 328
308 308 308 308 309 310 310 311 312 313 313 314 315 316 316 318 318 318 318 318 318 319 319 319 319 318 319 319 319 317 320 319 318 322 320 321 324 323 323 323 323 324 324 325 324 324 324 324 324 323 323 324 325 327
307 308 308 308 310 310 310 312 314 315 316 315 316 318 318 318 318 317 319 319 319 318 319 321 322 323 323 323 322 320 320 320 320 321 321 321 322 323 322 323 323 324 323 324 325 324 324 324 323 324 323 324 325 322
307 308 309 311 311 311 312 313 313 314 315 316 316 317 317 318 318 317 318 319 319 320 321 322 324 324 322 320 320 320 319 318 318 319 321 321 320 321 323 322 322 324 325 325 324 324 324 324 324 324 324 325 326 325
309 309 310 309 311 313 314 315 315 314 314 314 315 317 318 317 319 320 320 320 319 321 321 322 323 324 321 322 322 321 318 319 318 318 319 320 320 321 322 323 324 324 322 321 321 320 321 323 324 324 325 325 326 327
306 309 308 312 313 313 314 315 315 315 316 317 318 318 318 321 322 322 321 320 321 321 322 322 322 322 322 321 322 322 322 322 322 321 322 321 320 321 322 322 322 323 322 322 323 323 324 323 323 323 321 323 322 324
309 311 310 309 311 313 314 315 314 315 317 320 320 321 321 321 322 321 320 320 321 322 322 322 320 321 322 321 322 324 324 324 324 324 323 322 321 321 321 321 320 320 321 322 320 320 319 319 319 319 319 320 321 322
309 310 311 312 312 313 314 315 316 318 319 318 319 320 322 321 321 320 319 319 321 321 322 322 322 321 322 323 323 323 324 324 323 322 322 320 321 322 321 320 319 316 318 319 319 319 318 317 317 317 317 318 318 319
310 310 311 312 312 313 314 315 316 316 318 319 320 321 321 320 320 319 319 321 321 323 320 319 320 319 319 321 322 322 322 322 323 321 320 320 319 319 319 318 318 318 318 317 314 317 318 317 316 315 314 313 312 313
310 309 311 312 314 315 315 315 317 318 317 318 320 321 320 319 322 322 323 323 322 320 320 319 318 316 316 317 320 321 321 322 322 319 319 318 318 318 318 318 318 318 319 318 318 316 318 318 316 316 315 315 315 315
311 312 313 314 317 318 319 318 319 318 318 320 321 322 321 322 321 321 321 320 320 320 320 320 318 317 315 316 316 319 320 320 320 318 318 318 317 317 317 317 317 317 317 318 318 318 319 319 319 319 318 318 318 318
311 313 316 318 318 319 319 319 321 320 321 321 321 321 322 320 319 319 319 317 316 317 318 318 318 318 317 316 316 317 318 318 318 318 318 317 316 317 317 316 316 316 316 316 317 317 318 317 318 318 319 319 319 318
313 316 316 317 319 319 318 321 321 322 320 321 321 321 321 318 317 318 317 317 316 315 316 317 320 321 320 319 318 318 317 317 315 315 314 314 314 315 316 317 317 318 317 317 317 318 318 317 317 317 317 317 317 318

GFSWCAN_850_thetae_174.txt.gz
Theta_e
315 314 314 312 311 311 310 310 309 311 314 315 315 317 318 317 318 318 319 319 320 321 321 322 323 324 324 325 327 326 328 329 329 330 330 328 328 329 332 337 334 337 336 336 337 337 334 333 332 333 337 333 332 334
314 313 312 311 310 310 310 310 310 311 314 315 315 316 316 317 317 317 317 318 319 319 321 321 321 322 323 324 324 324 326 327 329 331 331 331 329 330 334 334 335 335 334 336 335 333 339 333 333 332 332 331 331 333
313 312 310 309 310 309 309 309 310 312 313 314 315 315 316 316 316 315 314 317 317 319 320 320 321 322 322 321 321 322 324 325 326 326 328 330 335 333 335 334 334 334 333 336 333 336 335 333 333 332 331 330 331 334
312 311 310 309 309 309 308 308 311 312 313 314 314 314 315 314 314 314 314 316 316 317 319 320 319 320 319 318 320 320 320 320 322 325 327 329 331 331 334 334 334 335 333 334 334 336 333 331 333 332 331 330 333 338
312 310 310 309 308 308 308 309 312 313 312 313 313 314 314 314 313 313 314 314 316 316 318 317 317 317 320 319 320 319 319 320 321 323 326 328 327 329 330 332 336 332 335 336 336 332 335 333 331 332 330 331 335 339
310 309 308 308 307 307 307 309 312 311 312 311 311 312 312 313 314 312 317 316 316 316 315 318 318 317 319 322 322 322 323 324 322 322 323 325 325 327 330 331 331 332 329 329 334 332 330 331 331 330 330 332 334 339
309 309 308 306 306 306 308 309 311 310 311 311 311 311 312 312 313 313 315 315 314 314 316 318 319 320 322 321 321 323 322 322 322 322 322 323 324 326 329 332 330 331 330 328 328 330 331 331 330 329 330 332 335 338
309 308 306 305 305 305 306 309 310 309 310 310 310 311 311 311 312 313 314 313 312 315 316 319 319 322 321 322 322 321 322 323 323 323 323 323 323 326 328 329 329 331 329 326 328 328 329 330 329 329 331 333 335 334
308 307 305 304 304 305 306 307 309 309 308 309 310 310 311 311 314 315 314 314 313 313 316 319 320 322 320 320 320 319 320 324 322 323 323 324 325 328 328 330 332 332 331 329 328 331 331 330 330 330 331 331 334 334
307 305 304 304 305 305 306 306 306 306 307 308 309 312 312 314 314 313 314 314 313 312 312 315 315 318 318 319 319 319 320 323 325 324 323 327 326 324 324 329 330 327 330 330 328 332 330 331 331 330 330 330 332 333
304 304 305 305 304 304 305 306 305 305 306 309 309 313 312 314 314 315 317 318 314 316 315 317 317 319 316 318 319 318 322 324 326 328 326 326 326 325 323 324 330 327 330 332 333 331 329 330 330 330 330 330 332 333
303 304 305 305 304 303 304 304 304 306 309 309 310 310 311 313 315 317 320 321 321 322 321 321 319 316 316 316 317 319 323 325 328 326 325 327 330 329 330 330 331 330 329 330 330 331 330 330 330 330 330 331 332 333
302 303 305 305 304 303 303 303 303 305 308 309 309 312 314 315 316 320 320 323 324 321 322 319 321 319 317 316 318 320 323 327 326 329 331 333 328 327 326 330 328 329 328 330 332 331 330 331 331 330 331 330 330 331
302 303 305 304 303 303 303 303 305 307 307 311 313 314 316 319 320 320 321 323 320 320 323 322 321 319 319 319 320 322 324 326 329 330 332 335 326 328 328 333 331 328 329 329 331 331 329 330 328 329 330 332 330 330
302 304 303 303 303 303 303 305 306 307 309 312 313 318 318 318 317 319 319 320 322 321 323 323 322 320 322 321 322 323 327 330 328 332 334 333 328 326 335 336 334 331 330 330 329 330 330 331 330 331 331 330 330 331
303 303 303 304 304 304 304 306 306 308 310 313 314 316 317 319 320 319 320 321 320 321 322 324 325 324 325 325 326 327 327 328 331 329 327 331 333 332 332 338 334 332 331 331 329 330 331 330 331 332 331 331 331 331
303 306 305 304 303 304 305 307 308 309 311 313 315 315 315 316 317 319 319 319 320 321 324 324 325 327 329 327 328 328 329 327 326 324 327 330 331 333 335 337 338 338 337 335 334 333 331 331 332 332 332 332 332 332
306 308 306 306 304 305 307 307 309 312 313 313 314 315 316 316 317 319 319 318 320 320 321 323 322 326 327 327 327 327 328 324 324 324 325 325 330 331 333 333 334 334 335 336 337 335 334 334 332 329 332 337 336 334
308 306 306 306 306 308 309 309 311 313 314 315 315 315 316 316 317 317 318 318 319 321 321 321 323 325 326 325 324 325 326 325 323 324 326 324 327 330 331 330 330 330 330 329 330 332 333 333 333 334 335 335 333 331
306 307 306 306 307 309 311 313 313 314 314 315 316 316 316 317 318 318 318 319 319 320 321 321 322 322 321 324 324 324 324 324 323 323 323 323 325 327 327 328 328 328 328 325 326 327 328 328 328 327 327 327 327 327
307 307 307 307 308 309 311 314 315 315 316 317 318 319 318 318 318 318 318 319 319 319 320 319 320 323 324 325 324 323 324 324 323 323 323 322 324 326 326 326 325 325 326 326 326 326 326 327 327 326 325 325 326 327
309 308 309 308 311 312 313 314 314 315 316 317 317 317 318 319 320 320 321 320 320 320 322 322 322 324 324 325 325 324 324 322 321 321 322 322 323 324 325 325 324 325 325 325 326 325 325 325 326 325 324 325 326 325
308 308 310 312 312 312 311 313 315 317 318 317 318 319 320 321 321 321 323 323 322 322 323 324 325 325 326 326 327 326 324 324 323 324 322 322 322 324 324 325 324 324 324 325 325 324 324 323 324 324 324 324 326 326
308 311 312 312 312 312 314 316 316 315 318 317 316 319 320 320 320 320 320 320 321 321 323 324 324 324 325 325 326 325 325 323 322 324 324 323 323 323 324 323 323 324 326 324 323 324 324 325 324 323 325 327 327 328
311 309 311 309 313 315 316 316 318 317 316 315 315 316 318 317 319 319 320 319 319 322 322 323 324 324 324 322 324 323 324 323 321 321 320 321 321 322 323 323 326 326 326 326 326 325 325 324 324 325 326 325 324 323
308 311 311 314 315 316 316 317 317 315 315 316 317 318 319 320 320 320 320 320 320 318 318 320 321 321 322 322 322 322 322 324 323 323 324 324 323 323 325 325 325 325 324 324 324 322 321 320 321 321 321 322 322 324
311 312 313 313 314 314 316 315 315 316 317 319 322 322 322 322 321 319 320 323 321 324 322 324 324 324 324 324 324 323 324 324 323 322 324 324 324 323 323 323 322 321 319 320 320 320 320 319 319 319 320 321 322 323
312 312 313 314 314 315 316 317 317 317 318 320 320 321 321 321 321 319 321 321 322 322 322 321 321 323 323 326 325 325 324 324 324 322 322 320 317 318 319 319 319 319 319 318 317 317 317 317 317 317 316 316 318 319
313 313 314 314 315 316 315 315 316 317 316 318 321 323 323 320 320 321 322 322 323 323 320 321 323 322 322 323 323 323 323 322 323 321 319 318 319 320 319 318 317 317 317 316 316 317 317 317 317 317 316 316 315 315
313 313 314 316 317 318 317 316 315 317 318 322 324 323 322 322 322 320 320 320 322 320 319 319 319 322 323 322 321 323 320 319 319 319 319 319 319 319 318 319 317 317 319 320 318 317 317 317 317 318 318 318 318 318
313 314 314 316 317 320 320 319 321 322 323 324 324 323 323 322 321 322 322 321 320 320 319 317 318 320 322 322 320 320 321 320 319 319 318 317 318 318 318 319 319 319 320 320 320 320 320 320 318 319 318 316 318 319
313 315 316 320 320 321 320 320 321 322 324 322 318 318 320 321 321 320 319 319 319 318 318 318 317 317 317 318 318 318 318 319 320 319 319 319 320 318 318 318 317 318 319 319 318 318 319 318 318 318 318 319 318 318
313 315 317 318 320 321 321 321 323 324 323 322 322 322 321 318 317 317 317 318 318 319 319 319 318 319 318 318 319 319 319 318 319 318 318 318 317 318 318 318 319 319 318 318 316 315 317 317 316 316 316 316 317 317